Regional Weather Roundup
Issued by NWS

Home | Current Version | Previous Version | Text Only | Print | Product List | Glossary On
Versions: 1 2 3 4 5 6 7 8 9 10 11 12 13 14 15 16 17 18 19 20 21 22 23 24 25 26 27 28 29 30 31 32 33 34 35 36 37 38 39 40 41 42 43 44 45 46 47 48 49 50
000
ASUS42 KTBW 302016
RWRFL
FLORIDA REGIONAL WEATHER ROUNDUP
NATIONAL WEATHER SERVICE TAMPA BAY RUSKIN FL
400 PM EDT TUE JUN 30 2015

NOTE: "FAIR" INDICATES FEW OR NO CLOUDS BELOW 12,000 FEET WITH NO
SIGNIFICANT WEATHER AND/OR OBSTRUCTIONS TO VISIBILITY.


FLZ001>010-012>015-112-114-115-302100-
PANHANDLE FLORIDA

CITY           SKY/WX    TMP DP  RH WIND       PRES   REMARKS
PENSACOLA      MOSUNNY   75  66  73 N12       30.09F
PENSACOLA NAS  LGT RAIN  73  66  78 N7        30.10
MILTON NAS     LGT RAIN  73  68  84 VRB7G17   30.09
CRESTVIEW      TSTM      70  68  93 NW13      30.14R
DUKE FIELD     TSTM      70  66  88 N14       30.12R FOG
VALPARAISO     TSTM      70  66  88 N22G36    30.13R
MARY ESTHER    TSTM      73  66  78 N24G36    30.11
TRI COUNTY     FAIR      80  73  79 S6        30.03F THUNDER
PANAMA CITY    MOCLDY    88  75  65 SW16G22   30.03F HX  97
TYNDALL AFB    SUNNY     88  77  71 W15       30.06F HX 100
APALACHICOLA   MOSUNNY   92  75  57 W20       30.06F HX 103

STATION/POSITION SKY/WX   TEMP    WIND        PRES    WAVE   SWELL
                          AIR SEA DIR/SP/G            HT/PER HT/PER
                          (F)     (DEG/KT/KT) (MB)    (FT/S) (FT/S)
30.1N   87.6W              82 85  310/ 19/ 29 1018.4R   2/ 5
29.2N   88.2W              84 87  280/  8/ 10 1019.4R   1/ 4
28.8N   86.0W              84 84  270/ 12/ 14 1019.6R   2/ 4
PANAMA CITY BEAC           83 83  260/ 15/ 17 1017.6F
CAPE SAN BLAS    NOT AVBL
TOWER C                    82     260/ 15/ 16 1018.7F
28.5N   84.5W              85 85  250/ 10/ 12 1019.0R   3/ 5   2/ 7

$$
FLZ011-016>038-118-127-128-134-139-239-302100-
NORTH FLORIDA

CITY           SKY/WX    TMP DP  RH WIND       PRES   REMARKS
MARIANNA       CLOUDY    82  74  76 SW10      30.03F
TALLAHASSEE    PTSUNNY   86  72  62 W8        30.04S
PERRY          CLOUDY    76  69  78 NW8G17    30.11R THUNDER
CROSS CITY       N/A     91  70  49 W16G22    30.07F HX  96
LAKE CITY      FAIR      72  70  94 CALM      30.08F
GAINESVILLE    MOSUNNY   92  69  47 W16G25    30.06S HX  97
MAYPORT NAS    TSTM      81  71  71 NW8G18    30.05S
JACKSONVILLE   TSTM      72  69  90 W13G31    30.06R FOG
JAX NAS        TSTM      83  68  60 W23G33    30.09R
JAX CRAIG      CLOUDY    79  68  69 NW16G24   30.08R THUNDER
JAX CECIL      LGT RAIN  73  70  88 NW23G35   30.09R
FERNANDINA BEA MOCLDY    79  70  73 W13G21    30.05S
ST AUGUSTINE   CLOUDY    90  73  57 W15       30.05R HX  98

STATION/POSITION SKY/WX   TEMP    WIND        PRES    WAVE   SWELL
                          AIR SEA DIR/SP/G            HT/PER HT/PER
                          (F)     (DEG/KT/KT) (MB)    (FT/S) (FT/S)
SHELL POINT                90     260/ 14/ 20   N/A
KEATON BEACH               84     250/ 16/ 18 1018.8S
CEDAR KEY                  85     260/ 10/ 13 1019.3R
FERNANDINA                 78 83  250/ 16/ 22 1016.8R
30.7N   81.3W                 79                N/A     2/ 8
MAYPORT                    81 81  240/ 11/ 15 1017.8R
31.4N   80.9W              80 81  190/ 17/ 21 1016.6R   2/ 8   2/ 8
ST AUGUSTINE               82 75  170/  9/ 10 1018.0R

$$
FLZ040-043>046-052-053-057-058-063-144-302100-
INTERIOR CENTRAL FLORIDA

CITY           SKY/WX    TMP DP  RH WIND       PRES   REMARKS
OCALA          MOSUNNY   84  68  58 NW7       30.09R THUNDER
THE VILLAGES     N/A    N/A N/A N/A SW10G18   29.97S
LEESBURG       MOSUNNY   92  69  47 W13G18    30.08S HX  97
SANFORD        MOSUNNY   95  70  44 W16       30.05S HX 101
ORLANDO EXEC   MOSUNNY   92  70  48 SW12G21   30.05F HX  97
ORLANDO INTL   PTSUNNY   94  71  47 W13G21    30.06S HX 101
KISSIMMEE      MOSUNNY   93  72  49 W9        30.06F HX 100
WINTER HAVEN   MOSUNNY   94  72  48 W9        30.08F HX 102
LAKELAND       MOSUNNY   91  73  55 SW9       30.08S HX 100
BARTOW         MOSUNNY   91  66  43 NW8       30.08F
OKEECHOBEE     SUNNY     91  72  52 SE8       30.07F HX  98

$$
FLZ041-047-054-059-064-141-147-302100-
EAST CENTRAL FLORIDA

CITY           SKY/WX    TMP DP  RH WIND       PRES   REMARKS
ORMOND BEACH   SUNNY     90  73  58 W9        30.06R HX  98
DAYTONA BEACH  MOSUNNY   91  70  49 W12       30.06R HX  96
DELAND           N/A     93  72  49 W13       30.07R HX 100
NEW SMYRNA BEA MOSUNNY   90  73  58 W12G23      N/A  HX  98
JFK SPACE CTR  PTSUNNY   92  71  49 SW10      30.03F HX  99
TITUSVILLE     PTSUNNY   90  68  48 SW12      30.05F
CAPE CANAVERAL SUNNY     94  72  49 SW9       30.03F HX 101
PATRICK AFB    SUNNY     94  71  46 SW7       30.05F HX 100
MELBOURNE      MOSUNNY   93  70  46 SW6       30.06F HX  99
VERO BEACH     MOSUNNY   93  69  45 E7        30.07F HX  98
FT PIERCE      SUNNY     89  74  60 E14       30.07F HX  98

STATION/POSITION SKY/WX   TEMP    WIND        PRES    WAVE   SWELL
                          AIR SEA DIR/SP/G            HT/PER HT/PER
                          (F)     (DEG/KT/KT) (MB)    (FT/S) (FT/S)
28.5N   80.2W              82 82  170/ 10/ 10 1018.4F
28.9N   78.5W              83 84  240/  8/ 10 1019.0F
TRIDENT PIER               90 80  230/  8/ 11 1018.4F
27.5N   80.2W                 80                N/A     1/ 8

$$
FLZ050-056-061-142-242-148-248-149-249-151-251-155-255-
160-260-302100-
WEST CENTRAL FLORIDA

CITY           SKY/WX    TMP DP  RH WIND       PRES   REMARKS
CRYSTAL RIVER  MOCLDY    88  73  62 W13       30.09S HX  96
INVERNESS      FAIR     N/A N/A N/A W6        30.09R
BROOKSVILLE    SUNNY     92  71  50 W12G20    30.09S HX  98
ZEPHYRHILLS    FAIR      91  61  35 CALM      30.08S
CLEARWATER     PTSUNNY   92  74  55 W12G18    30.09S HX 101
TAMPA INTL     MOSUNNY   91  70  49 W10       30.09S HX  96
TAMPA EXEC     SUNNY    N/A N/A N/A SW5       30.08F
PLANT CITY     MOSUNNY   93  75  55 W9G17     30.10S HX 104
MACDILL AFB    MOSUNNY   92  77  61 W9G17     30.09S HX 105
PETER O KNIGHT PTSUNNY   91  77  62 W8        30.09S HX 105
ST PETERSBURG  MOSUNNY   86  74  67 W13       30.08S
SARASOTA       SUNNY     90  73  57 W10       30.08S HX  98
VENICE         FAIR      90  73  58 SW8       30.10S HX  98

STATION/POSITION SKY/WX   TEMP    WIND        PRES    WAVE   SWELL
                          AIR SEA DIR/SP/G            HT/PER HT/PER
                          (F)     (DEG/KT/KT) (MB)    (FT/S) (FT/S)
CEDAR KEY                  85     260/ 10/ 13 1019.3R
28.5N   84.5W              85 85  250/ 10/ 12 1019.0R   3/ 5   2/ 7
27.3N   84.2W                 86                N/A     2/ 5
CLEARWATER BEACH           86 88  250/  6/  9 1019.3F
MIDDLE TAMPA BAY           86     260/  7/  9 1019.5F
VENICE                     87 90  240/  6/  7 1018.6F

$$
FLZ066-069-070-075>078-162-262-165-265-302100-
SOUTHWEST FLORIDA AND KEYS

CITY           SKY/WX    TMP DP  RH WIND       PRES   REMARKS
PUNTA GORDA    SUNNY     92  74  55 W9        30.09F HX 101
FT MYERS       MOSUNNY   94  72  48 VRB6      30.06F HX 102
SOUTHWEST INTL MOSUNNY   94  62  34 CALM      30.07F
NAPLES         PTSUNNY   93  73  52 W3        30.06F HX 102
MARCO ISLAND   MOCLDY    91  73  55 W7        30.07F HX 100
MARATHON       PTSUNNY   92  78  63 SE10      30.09F HX 107
KEY WEST NAS   CLOUDY    92  76  59 SE14      30.08F HX 104
KEY WEST INTL  CLOUDY    92  79  65 E13       30.08F HX 108

STATION/POSITION SKY/WX   TEMP    WIND        PRES    WAVE   SWELL
                          AIR SEA DIR/SP/G            HT/PER HT/PER
                          (F)     (DEG/KT/KT) (MB)    (FT/S) (FT/S)
VENICE                     87 90  240/  6/  7 1018.6F
NAPLES                        91              1019.9F
26.0N   85.6W              84 86  230/  2/  4 1018.9F   2/ 7   2/ 7
DRY TORTUGAS               85      60/ 10/ 11 1019.2F
NW FL BAY                  89     180/  7/  9 1019.2
SAND KEY                   86     100/ 12/ 13 1018.7F
SOMBRERO KEY               87     110/ 13/ 15 1019.5F
LONG KEY                   87 91  130/ 14/ 16 1019.4F
MOLASSES REEF              85 85  130/ 15/ 16 1018.9F

$$
FLZ067-068-071>074-168-172>174-302100-
SOUTHEAST FLORIDA

CITY           SKY/WX    TMP DP  RH WIND       PRES   REMARKS
W PALM BEACH   PTSUNNY   90  75  61 SE16      30.10F HX 100
FT LAUDER-EXEC PTSUNNY   90  75  61 E16       30.09F HX 100
FT LAUDERDALE  CLOUDY    89  76  65 E18       30.09F HX 100
POMPANO BEACH  MOSUNNY   90  75  61 E16       30.09F HX 100
PEMBROKE PINES MOSUNNY   92  73  53 E16       30.11F HX 100
OPA LOCKA      MOSUNNY   90  73  57 SE15      30.10F HX  98
MIAMI          PTSUNNY   90  75  61 SE15      30.09F HX 100
WEST KENDALL   MOSUNNY   88  75  65 E15       30.08F HX  97
HOMESTEAD      MOSUNNY   89  77  67 E17       30.08F HX 101

STATION/POSITION SKY/WX   TEMP    WIND        PRES    WAVE   SWELL
                          AIR SEA DIR/SP/G            HT/PER HT/PER
                          (F)     (DEG/KT/KT) (MB)    (FT/S) (FT/S)
PORT EVERGLADES            88     100/  5/ 10 1020.0F
VIRGINIA KEY               86 89  110/ 12/ 15 1019.6F
LAKE WORTH                 84 85   90/  9/ 10 1019.6F
SETTLEMENT POINT           85     120/  7/  9 1020.7F

$$




USA.gov is the U.S. government's official web portal to all federal, state and local government web resources and services.